When you browse on this site, cookies collect data to enhance your experience and personalize the content and advertising you see.
Visit our Privacy Policy to learn more. By continuing to use the site, you agree to this use of cookies and data.
  • Em Portugal
  • Lista de países
  • Para 7 dias
  • Temperatura da água
  • Mapas de satélite
  • Mapa do tempo
  • Widgets de tempo
  • user-avatar
    Iniciar Sessão

    Previsão horária em Kochergino

    Hoje, 26 Abril, Sexta-feira

    Tempo Temperatura Precipitação Vento Pressão Humidade
    00:00 +14°C° 0 mm 1 m/s 743 mmHg 52%
    01:00 +12°C° 0 mm 0 m/s 743 mmHg 53%
    02:00 +11°C° 0 mm 0 m/s 743 mmHg 54%
    03:00 +11°C° 0 mm 0 m/s 743 mmHg 55%
    04:00 +11°C° 0 mm 0 m/s 743 mmHg 56%
    05:00 +11°C° 0 mm 0 m/s 743 mmHg 57%
    06:00 +13°C° 0 mm 0 m/s 743 mmHg 52%
    07:00 +16°C° 0 mm 1 m/s 743 mmHg 47%
    08:00 +19°C° 0 mm 1 m/s 743 mmHg 42%
    09:00 +21°C° 0 mm 1 m/s 743 mmHg 38%
    10:00 +21°C° 0 mm 2 m/s 743 mmHg 33%
    11:00 +24°C° 0 mm 2 m/s 742 mmHg 28%
    12:00 +24°C° 0 mm 2 m/s 742 mmHg 28%
    13:00 +24°C° 0 mm 2 m/s 742 mmHg 28%
    14:00 +24°C° 0 mm 2 m/s 742 mmHg 28%
    15:00 +23°C° 0 mm 2 m/s 741 mmHg 31%
    16:00 +23°C° 0 mm 2 m/s 741 mmHg 34%
    17:00 +21°C° 0 mm 2 m/s 740 mmHg 37%
    18:00 +19°C° 0 mm 2 m/s 740 mmHg 42%
    19:00 +17°C° 0 mm 2 m/s 740 mmHg 47%
    20:00 +15°C° 0 mm 2 m/s 740 mmHg 53%
    21:00 +14°C° 0 mm 1 m/s 740 mmHg 55%
    22:00 +14°C° 0 mm 1 m/s 739 mmHg 57%
    23:00 +13°C° 0 mm 1 m/s 739 mmHg 59%

    Amanhã, 27 Abril, Sábado

    Tempo Temperatura Precipitação Vento Pressão Humidade
    00:00 +12°C° 0 mm 1 m/s 739 mmHg 62%
    01:00 +12°C° 0 mm 1 m/s 739 mmHg 65%
    02:00 +12°C° 0 mm 2 m/s 739 mmHg 67%
    03:00 +10°C° 0 mm 2 m/s 738 mmHg 69%
    04:00 +10°C° 0 mm 2 m/s 738 mmHg 71%
    05:00 +10°C° 0 mm 2 m/s 737 mmHg 72%
    06:00 +13°C° 0 mm 2 m/s 737 mmHg 66%
    07:00 +14°C° 0 mm 2 m/s 737 mmHg 60%
    08:00 +16°C° 0 mm 2 m/s 737 mmHg 54%
    09:00 +18°C° 0 mm 2 m/s 737 mmHg 48%
    10:00 +20°C° 0 mm 2 m/s 736 mmHg 41%
    11:00 +21°C° 0 mm 2 m/s 736 mmHg 35%
    12:00 +23°C° 0 mm 2 m/s 736 mmHg 34%
    13:00 +24°C° 0 mm 2 m/s 735 mmHg 33%
    14:00 +24°C° 0 mm 2 m/s 735 mmHg 32%
    15:00 +23°C° 0 mm 2 m/s 735 mmHg 37%
    16:00 +22°C° 0 mm 1 m/s 734 mmHg 41%
    17:00 +21°C° 0 mm 1 m/s 734 mmHg 46%
    18:00 +19°C° 0 mm 2 m/s 734 mmHg 53%
    19:00 +17°C° 0 mm 2 m/s 734 mmHg 60%
    20:00 +15°C° 0 mm 2 m/s 734 mmHg 66%
    21:00 +14°C° 0.3 mm 2 m/s 734 mmHg 73%
    22:00 +13°C° 0.3 mm 2 m/s 734 mmHg 80%
    23:00 +12°C° 0.3 mm 2 m/s 734 mmHg 86%

    Depois de amanhã, 28 Abril, Domingo

    Tempo Temperatura Precipitação Vento Pressão Humidade
    00:00 +11°C° 0 mm 3 m/s 735 mmHg 88%
    01:00 +10°C° 0 mm 3 m/s 735 mmHg 89%
    02:00 +10°C° 0 mm 4 m/s 735 mmHg 91%
    03:00 +8°C° 0 mm 4 m/s 736 mmHg 89%
    04:00 +8°C° 0 mm 4 m/s 736 mmHg 87%
    05:00 +7°C° 0 mm 5 m/s 737 mmHg 85%
    06:00 +7°C° 0 mm 5 m/s 738 mmHg 81%
    07:00 +7°C° 0 mm 5 m/s 738 mmHg 77%
    08:00 +7°C° 0 mm 5 m/s 739 mmHg 72%
    09:00 +7°C° 0 mm 5 m/s 740 mmHg 64%
    10:00 +8°C° 0 mm 5 m/s 740 mmHg 56%
    11:00 +8°C° 0 mm 5 m/s 741 mmHg 48%
    12:00 +9°C° 0 mm 5 m/s 741 mmHg 43%
    13:00 +9°C° 0 mm 5 m/s 741 mmHg 38%
    14:00 +10°C° 0 mm 5 m/s 742 mmHg 32%
    15:00 +10°C° 0 mm 5 m/s 742 mmHg 32%
    16:00 +9°C° 0 mm 5 m/s 742 mmHg 32%
    17:00 +10°C° 0 mm 4 m/s 742 mmHg 32%
    18:00 +7°C° 0 mm 4 m/s 742 mmHg 37%
    19:00 +5°C° 0 mm 3 m/s 743 mmHg 42%
    20:00 +5°C° 0 mm 2 m/s 743 mmHg 47%
    21:00 +4°C° 0 mm 2 m/s 744 mmHg 51%
    22:00 +3°C° 0 mm 2 m/s 744 mmHg 55%
    23:00 +2°C° 0 mm 2 m/s 745 mmHg 59%

    29 Abril, Segunda-feira

    Tempo Temperatura Precipitação Vento Pressão Humidade
    00:00 +2°C° 0 mm 2 m/s 745 mmHg 61%
    01:00 +1°C° 0 mm 2 m/s 745 mmHg 64%
    02:00 -1°C° 0 mm 2 m/s 745 mmHg 66%
    03:00 -1°C° 0 mm 2 m/s 746 mmHg 66%
    04:00 -1°C° 0 mm 2 m/s 746 mmHg 66%
    05:00 -1°C° 0 mm 2 m/s 746 mmHg 66%
    06:00 0°C° 0 mm 3 m/s 746 mmHg 58%
    07:00 +2°C° 0 mm 3 m/s 746 mmHg 50%
    08:00 +4°C° 0 mm 3 m/s 747 mmHg 43%
    09:00 +5°C° 0 mm 3 m/s 746 mmHg 39%
    10:00 +7°C° 0 mm 3 m/s 746 mmHg 35%
    11:00 +9°C° 0 mm 2 m/s 746 mmHg 32%
    12:00 +9°C° 0 mm 2 m/s 746 mmHg 30%
    13:00 +10°C° 0 mm 2 m/s 746 mmHg 28%
    14:00 +12°C° 0 mm 2 m/s 745 mmHg 26%
    15:00 +12°C° 0 mm 2 m/s 745 mmHg 27%
    16:00 +10°C° 0 mm 2 m/s 744 mmHg 28%
    17:00 +10°C° 0 mm 2 m/s 744 mmHg 28%
    18:00 +8°C° 0 mm 2 m/s 744 mmHg 34%
    19:00 +7°C° 0 mm 1 m/s 744 mmHg 40%
    20:00 +6°C° 0 mm 1 m/s 744 mmHg 45%
    21:00 +5°C° 0 mm 1 m/s 744 mmHg 48%
    22:00 +4°C° 0 mm 1 m/s 744 mmHg 51%
    23:00 +3°C° 0 mm 1 m/s 744 mmHg 53%

    30 Abril, Terça-feira

    Tempo Temperatura Precipitação Vento Pressão Humidade
    00:00 +3°C° 0 mm 1 m/s 743 mmHg 54%
    01:00 +2°C° 0 mm 1 m/s 743 mmHg 55%
    02:00 +2°C° 0 mm 1 m/s 743 mmHg 57%
    03:00 +2°C° 0 mm 1 m/s 743 mmHg 56%
    04:00 +2°C° 0 mm 1 m/s 743 mmHg 56%
    05:00 +2°C° 0 mm 1 m/s 743 mmHg 56%
    06:00 +5°C° 0 mm 1 m/s 743 mmHg 49%
    07:00 +6°C° 0 mm 0 m/s 743 mmHg 43%
    08:00 +9°C° 0 mm 0 m/s 742 mmHg 36%
    09:00 +10°C° 0 mm 0 m/s 742 mmHg 33%
    10:00 +12°C° 0 mm 0 m/s 742 mmHg 30%
    11:00 +14°C° 0 mm 0 m/s 742 mmHg 27%
    12:00 +14°C° 0 mm 0 m/s 742 mmHg 27%
    13:00 +14°C° 0 mm 1 m/s 741 mmHg 28%
    14:00 +14°C° 0 mm 1 m/s 741 mmHg 28%
    15:00 +14°C° 0 mm 1 m/s 740 mmHg 29%
    16:00 +13°C° 0 mm 1 m/s 740 mmHg 30%
    17:00 +13°C° 0 mm 1 m/s 740 mmHg 32%
    18:00 +11°C° 0 mm 1 m/s 740 mmHg 37%
    19:00 +10°C° 0 mm 1 m/s 740 mmHg 41%
    20:00 +9°C° 0 mm 1 m/s 739 mmHg 46%
    21:00 +8°C° 0 mm 1 m/s 739 mmHg 48%
    22:00 +7°C° 0 mm 1 m/s 739 mmHg 49%
    23:00 +7°C° 0 mm 1 m/s 739 mmHg 51%

    1 Maio, Quarta-feira

    Tempo Temperatura Precipitação Vento Pressão Humidade
    00:00 +6°C° 0 mm 1 m/s 739 mmHg 52%
    01:00 +6°C° 0 mm 1 m/s 739 mmHg 53%
    02:00 +6°C° 0 mm 1 m/s 739 mmHg 53%
    03:00 +6°C° 0 mm 1 m/s 738 mmHg 53%
    04:00 +6°C° 0 mm 1 m/s 738 mmHg 54%
    05:00 +6°C° 0 mm 1 m/s 738 mmHg 54%
    06:00 +7°C° 0 mm 1 m/s 738 mmHg 49%
    07:00 +9°C° 0 mm 1 m/s 738 mmHg 45%
    08:00 +10°C° 0 mm 1 m/s 738 mmHg 40%
    09:00 +10°C° 0 mm 2 m/s 737 mmHg 37%
    10:00 +12°C° 0 mm 2 m/s 737 mmHg 34%
    11:00 +13°C° 0 mm 2 m/s 736 mmHg 30%
    12:00 +14°C° 0 mm 2 m/s 736 mmHg 30%
    13:00 +14°C° 0 mm 2 m/s 735 mmHg 29%
    14:00 +14°C° 0 mm 2 m/s 735 mmHg 29%
    15:00 +14°C° 0 mm 2 m/s 734 mmHg 31%
    16:00 +14°C° 0 mm 2 m/s 734 mmHg 32%
    17:00 +13°C° 0 mm 2 m/s 733 mmHg 34%
    18:00 +12°C° 0 mm 2 m/s 733 mmHg 38%
    19:00 +10°C° 0 mm 2 m/s 733 mmHg 43%
    20:00 +9°C° 0 mm 2 m/s 732 mmHg 48%
    21:00 +8°C° 0 mm 2 m/s 732 mmHg 51%
    22:00 +8°C° 0 mm 2 m/s 731 mmHg 54%
    23:00 +7°C° 0 mm 2 m/s 731 mmHg 58%
    Mostrar mais